[[{"header":{"parameterUnit":"m.s-1","parameterCategory":1,"la1":30.2991,"la2":30.254,"lo1":-89.0895,"lo2":-89.0444,"dy":0.0017,"dx":0.0017,"nx":28,"ny":28,"refTime":"2025-04-18T09:00:00:Z","depth":0,"parameterNumber":2,"parameterNumberName":"U-component_of_WINDS"},"data":[0,0,0,0,0,0,0,0,0,0,0,0,0,0,0,0,0,0,0,0,0,0,0,0,0,0,0,0,0,0,0,0,0,0,0,0,0,0,0,0,0,0,0,0,0,0,0,0,0,0,0,0,0,0,0,0,0,0,-4.2623,-4.2624,0,-4.2732,-4.2734,-4.2735,-4.2699,-4.2697,-4.2694,-4.2692,-4.2802,-4.2807,-4.2812,0,0,0,0,0,0,0,0,0,0,0,0,0,-4.2381,-4.2386,-4.2623,-4.2624,-4.2626,-4.2732,-4.2734,-4.2735,-4.2699,-4.2696,-4.2694,-4.2691,-4.28,-4.2806,-4.2812,0,0,0,0,0,0,0,0,0,0,0,0,0,-4.2488,-4.2387,-4.2623,-4.2621,-4.2622,-4.2732,-4.2734,-4.2736,-4.27,-4.2696,-4.2693,-4.269,-4.2798,-4.2805,-4.2813,-4.2931,0,0,-4.2837,-4.284,0,0,0,0,0,0,0,0,-4.2482,-4.2497,-4.262,-4.2621,-4.2622,-4.2698,-4.2689,-4.2801,-4.2701,-4.267,-4.2692,-4.2688,-4.277,-4.278,-4.2808,-4.2936,-4.2941,-4.2837,-4.2842,-4.2845,-4.2847,0,0,0,0,0,0,0,-4.2474,-4.2492,-4.2666,-4.2621,-4.2623,-4.2614,-4.2625,-4.271,-4.2738,-4.2673,-4.267,-4.2684,-4.277,-4.2801,-4.281,-4.2943,-4.2837,-4.2844,-4.2849,-4.2852,-4.3173,-4.3177,0,0,0,0,0,0,-4.2467,-4.2486,-4.2663,-4.2669,-4.2542,-4.2621,-4.2634,-4.2677,-4.2738,-4.2743,-4.2687,-4.2682,-4.2789,-4.2801,-4.2814,-4.2956,-4.2845,-4.2852,-4.2857,-4.3169,-4.3174,-4.3178,0,0,0,0,0,0,-4.2461,-4.2483,-4.2658,-4.2577,-4.2599,-4.2629,-4.2679,-4.2682,-4.2712,-4.2748,-4.2753,-4.2713,-4.2787,-4.2803,-4.2902,-4.2959,-4.2856,-4.2863,-4.3165,-4.3171,-4.3176,-4.324,0,0,0,0,0,0,-4.2455,-4.2481,-4.2527,-4.2578,-4.2603,-4.2745,-4.2682,-4.2686,-4.2726,-4.272,-4.2774,-4.2779,-4.2786,-4.2891,-4.291,-4.2968,-4.2869,-4.316,-4.3167,-4.3174,-4.3233,-4.3248,-4.326,0,0,0,0,0,-4.2446,-4.254,-4.2529,-4.2551,-4.2661,-4.2749,-4.2763,-4.2769,-4.273,-4.2776,-4.2799,-4.2778,-4.295,-4.2902,-4.2923,-4.2983,-4.3156,-4.3165,-4.3174,-4.3227,-4.3245,-4.326,0,0,0,0,0,0,-4.2493,-4.2546,-4.2535,-4.2649,-4.2695,-4.2743,-4.28,-4.2787,-4.2844,-4.2837,-4.2841,-4.2853,-4.2955,-4.2979,-4.2924,-4.3101,-4.3047,-4.3061,-4.3081,-4.3098,-4.3111,-4.3102,-4.2875,0,0,0,0,0,-4.2517,-4.2584,-4.2627,-4.2723,-4.2747,-4.277,-4.2808,-4.2809,-4.2856,-4.2875,-4.2906,-4.2952,-4.3017,-4.3059,-4.312,-4.3237,-4.3248,-4.3289,-4.3303,-4.3314,-4.3325,-4.3388,-4.3406,-4.3207,-4.3207,-4.3207,0,0,-4.2565,-4.2603,-4.2645,-4.2733,-4.2769,-4.2838,-4.2786,-4.2862,-4.2913,-4.2886,-4.2982,-4.3006,-4.3058,-4.3167,-4.3216,-4.319,-4.3382,-4.3325,-4.3333,-4.3338,-4.3399,-4.3417,-4.3434,-4.3213,-4.3212,-4.3211,0,0,-4.269,-4.2726,-4.2809,-4.2847,-4.2902,-4.2917,-4.2937,-4.2988,-4.3003,-4.3099,-4.3081,-4.3142,-4.3253,-4.329,-4.3324,-4.3464,-4.3446,-4.3484,-4.3554,-4.3615,-4.3631,-4.3644,-4.3693,-4.3711,-4.3496,-4.3496,-4.3496,0,-4.2744,-4.2848,-4.2854,-4.2931,-4.297,-4.2951,-4.3035,-4.3071,-4.3143,-4.317,-4.314,-4.328,-4.3313,-4.343,-4.3464,-4.3493,-4.3515,-4.3477,-4.3628,-4.3642,-4.3655,-4.3702,-4.372,-4.35,-4.35,-4.3499,-4.3499,0,-4.2911,-4.2983,-4.3044,-4.3115,-4.3161,-4.3241,-4.3259,-4.3305,-4.3302,-4.332,-4.3418,-4.3458,-4.3527,-4.3555,-4.3553,-4.3672,-4.3654,-4.3627,-4.3572,-4.3678,-4.3722,-4.374,-4.3506,-4.3504,-4.3503,-4.3502,0,0,-4.3066,-4.314,-4.3162,-4.3194,-4.3254,-4.331,-4.339,-4.3458,-4.3497,-4.3548,-4.3614,-4.3709,-4.3684,-4.3722,-4.3724,-4.3779,-4.3886,-4.3744,-4.3745,-4.3768,-4.4018,-4.4037,-4.4058,-4.3875,-4.3878,-4.3881,-4.4013,0,-4.3194,-4.3334,-4.3343,-4.347,-4.3536,-4.352,-4.3589,-4.3633,-4.3652,-4.3711,-4.3732,-4.3799,-4.3762,-4.3785,-4.3838,-4.3861,-4.3936,-4.3852,-4.3935,-4.3938,-4.3921,-4.4081,-4.4101,-4.4224,-4.4031,-4.4034,-4.4036,0,-4.3362,-4.3419,-4.3553,-4.3604,-4.3632,-4.3694,-4.3757,-4.3815,-4.3864,-4.3874,-4.3918,-4.3912,-4.3993,-4.3938,-4.4049,-4.3992,-4.4026,-4.4043,-4.4048,-4.4054,-4.3992,-4.409,-4.4263,-4.4281,-4.4063,-4.4061,-4.4059,0,-4.3461,-4.3571,-4.3665,-4.3693,-4.3755,-4.3799,-4.3826,-4.3872,-4.3913,-4.3969,-4.3995,-4.4059,-4.4094,-4.4143,-4.4155,-4.4114,-4.4265,-4.4211,-4.4275,-4.4274,-4.4306,-4.4303,-4.4485,-4.4331,-4.4331,-4.433,-4.433,0,-4.3602,-4.3684,-4.371,-4.3767,-4.3859,-4.3868,-4.3958,-4.3982,-4.4024,-4.4086,-4.4076,-4.4133,-4.4146,-4.4207,-4.4216,-4.4306,-4.4322,-4.4332,-4.4333,-4.4332,-4.433,-4.4353,-4.4344,-4.4335,-4.4334,-4.4333,-4.4332,0,-4.3726,-4.3747,-4.3848,-4.3899,-4.3914,-4.3979,-4.4022,-4.4077,-4.4095,-4.4174,-4.4193,-4.4221,-4.4292,-4.4309,-4.4393,-4.44,-4.4505,-4.4499,-4.4489,-4.4488,-4.455,-4.4543,-4.4751,-4.4779,-4.4608,-4.461,-4.4611,0,-4.3815,-4.3877,-4.3935,-4.3976,-4.4006,-4.4073,-4.4114,-4.4126,-4.417,-4.4231,-4.4279,-4.4348,-4.4405,-4.4518,-4.4546,-4.461,-4.4604,-4.4673,-4.4614,-4.461,-4.4604,-4.4599,-4.4605,-4.4684,-4.4685,-4.4687,-4.4688,0,-4.3969,-4.3976,-4.4037,-4.4102,-4.4152,-4.4204,-4.4253,-4.4287,-4.4305,-4.4355,-4.4427,-4.4471,-4.4557,-4.4626,-4.4691,-4.4718,-4.4706,-4.4707,-4.4725,-4.4723,-4.4714,-4.4718,-4.4518,-4.4702,-4.47,-4.4699,-4.4698,-4.4698,-4.4077,-4.4132,-4.4181,-4.4249,-4.4288,-4.4334,-4.4388,-4.4414,-4.4475,-4.4547,-4.455,-4.4628,-4.4676,-4.4762,-4.4794,-4.4855,-4.4834,-4.486,-4.4866,-4.4872,-4.4877,-4.4706,-4.4867,-4.4867,-4.4866,-4.4866,-4.4866,0,-4.4229,-4.426,-4.4323,-4.4392,-4.4446,-4.4432,-4.4485,-4.4531,-4.4601,-4.4647,-4.4703,-4.4786,-4.4853,-4.4887,-4.4953,-4.4995,-4.4991,-4.5012,-4.5008,-4.5015,-4.4893,-4.487,-4.5014,-4.5014,-4.5014,-4.5014,-4.5014,-4.5014,-4.4314,-4.4406,-4.442,-4.4531,-4.4561,-4.4639,-4.4671,-4.4713,-4.475,-4.4844,-4.4899,-4.4921,-4.4963,-4.5032,-4.5092,-4.5101,-4.5125,-4.5148,-4.5153,-4.5038,-4.5023,-4.5009,-4.4987,-4.5154,-4.5154,-4.527,-4.5271,-4.5272]},{"header":{"parameterUnit":"m.s-1","parameterCategory":1,"la1":30.2991,"la2":30.254,"lo1":-89.0895,"lo2":-89.0444,"dy":0.0017,"dx":0.0017,"nx":28,"ny":28,"refTime":"2025-04-18T09:00:00:Z","depth":0,"parameterNumber":3,"parameterNumberName":"V-component_of_WINDS"},"data":[0,0,0,0,0,0,0,0,0,0,0,0,0,0,0,0,0,0,0,0,0,0,0,0,0,0,0,0,0,0,0,0,0,0,0,0,0,0,0,0,0,0,0,0,0,0,0,0,0,0,0,0,0,0,0,0,0,0,3.8354,3.8354,0,3.8355,3.8355,3.8355,3.8321,3.8321,3.832,3.8319,3.832,3.832,3.8321,0,0,0,0,0,0,0,0,0,0,0,0,0,3.8323,3.8324,3.8354,3.8354,3.8354,3.8355,3.8355,3.8355,3.8322,3.832,3.8319,3.8318,3.8319,3.832,3.8321,0,0,0,0,0,0,0,0,0,0,0,0,0,3.8332,3.8324,3.8354,3.8337,3.8336,3.8355,3.8355,3.8355,3.8322,3.832,3.8319,3.8318,3.8319,3.832,3.8322,3.8356,0,0,3.8325,3.8326,0,0,0,0,0,0,0,0,3.8331,3.8333,3.834,3.8338,3.8337,3.8337,3.8344,3.8355,3.8322,3.8327,3.8319,3.8317,3.8326,3.8327,3.833,3.8356,3.8356,3.8326,3.8326,3.8327,3.8327,0,0,0,0,0,0,0,3.8331,3.8333,3.8354,3.834,3.8338,3.833,3.833,3.8346,3.8334,3.8327,3.8324,3.8325,3.8325,3.8329,3.833,3.8356,3.8326,3.8327,3.8328,3.8328,3.8413,3.8414,0,0,0,0,0,0,3.8332,3.8332,3.8354,3.8354,3.8331,3.8332,3.8331,3.8338,3.8334,3.8332,3.8326,3.8323,3.8327,3.8328,3.833,3.8371,3.8327,3.8328,3.8329,3.8411,3.8413,3.8415,0,0,0,0,0,0,3.8332,3.8335,3.8354,3.8343,3.8344,3.8334,3.8341,3.8339,3.8342,3.8333,3.8331,3.8332,3.8326,3.8328,3.835,3.837,3.8329,3.833,3.841,3.8412,3.8414,3.8453,0,0,0,0,0,0,3.8331,3.8335,3.8347,3.8343,3.8345,3.8374,3.8343,3.834,3.8345,3.8341,3.8338,3.8337,3.8325,3.8349,3.8352,3.8371,3.8331,3.8408,3.8411,3.8413,3.845,3.8456,3.8462,0,0,0,0,0,3.833,3.8358,3.8348,3.8351,3.8361,3.8376,3.8377,3.8363,3.8346,3.8359,3.8354,3.8337,3.8368,3.8351,3.8354,3.8375,3.8406,3.841,3.8413,3.8447,3.8455,3.8462,0,0,0,0,0,0,3.8364,3.8357,3.8346,3.8373,3.8375,3.837,3.8386,3.8372,3.8379,3.8375,3.8358,3.8358,3.8383,3.8381,3.8363,3.8409,3.8384,3.8388,3.8409,3.8417,3.8422,3.8422,3.8332,0,0,0,0,0,3.8375,3.8387,3.838,3.8405,3.8407,3.8396,3.8402,3.8392,3.8393,3.8394,3.839,3.8392,3.8402,3.8409,3.8418,3.845,3.8449,3.8466,3.8472,3.8477,3.848,3.8498,3.8505,3.8426,3.8426,3.8425,0,0,3.8397,3.8395,3.8403,3.8412,3.8412,3.8426,3.8397,3.8412,3.8422,3.8396,3.8417,3.8415,3.8416,3.8443,3.8455,3.8442,3.8502,3.8481,3.8485,3.8486,3.8502,3.8509,3.8516,3.8428,3.8427,3.8427,0,0,3.8444,3.8444,3.8465,3.8466,3.8467,3.846,3.8466,3.8463,3.846,3.8481,3.8462,3.8474,3.8492,3.8494,3.8497,3.8548,3.8532,3.8551,3.8582,3.8599,3.8605,3.8611,3.8629,3.8636,3.8555,3.8555,3.8555,0,3.8471,3.8491,3.8477,3.8494,3.8499,3.8477,3.8498,3.85,3.8504,3.8508,3.8494,3.8517,3.8516,3.8544,3.8557,3.856,3.8566,3.8551,3.8606,3.8611,3.8616,3.8633,3.864,3.8557,3.8557,3.8557,3.8556,0,3.8525,3.8539,3.8556,3.8561,3.8568,3.8587,3.8576,3.8585,3.8575,3.857,3.8592,3.8591,3.8599,3.8606,3.8595,3.8633,3.8625,3.8609,3.8583,3.8626,3.8642,3.8648,3.856,3.856,3.8559,3.8558,0,0,3.8591,3.8591,3.8597,3.86,3.86,3.8611,3.863,3.8639,3.8647,3.8651,3.8667,3.8683,3.8669,3.8673,3.8663,3.8678,3.8719,3.866,3.866,3.8671,3.8761,3.8773,3.878,3.8709,3.871,3.8711,3.8761,0,3.8638,3.867,3.8659,3.8691,3.8705,3.8685,3.8701,3.8704,3.87,3.8711,3.8707,3.8719,3.8699,3.8701,3.8715,3.8711,3.8737,3.8707,3.8724,3.8724,3.8724,3.8789,3.8801,3.8848,3.8767,3.8768,3.8768,0,3.8695,3.8703,3.8737,3.8737,3.8742,3.8757,3.8765,3.8776,3.8779,3.8775,3.8781,3.8768,3.8787,3.8762,3.8788,3.8769,3.8775,3.8774,3.8776,3.8776,3.8749,3.8791,3.8862,3.8869,3.8778,3.8777,3.8777,0,3.8741,3.876,3.8783,3.8786,3.8786,3.8797,3.8798,3.88,3.8806,3.8814,3.8818,3.8827,3.8833,3.884,3.8831,3.8814,3.8859,3.8833,3.8856,3.8857,3.8866,3.8865,3.8939,3.887,3.887,3.887,3.887,0,3.8794,3.8815,3.8804,3.8818,3.8842,3.883,3.8854,3.8853,3.8855,3.8869,3.8852,3.8865,3.8852,3.8864,3.8857,3.888,3.8883,3.888,3.8878,3.8882,3.8882,3.8885,3.8882,3.8872,3.8872,3.8871,3.8871,0,3.8849,3.8842,3.8866,3.8865,3.8865,3.8883,3.8882,3.8896,3.8891,3.8909,3.8913,3.8906,3.892,3.8911,3.8925,3.892,3.895,3.8944,3.895,3.8948,3.8971,3.8969,3.9049,3.9059,3.8985,3.8985,3.8986,0,3.8882,3.8899,3.89,3.8909,3.8911,3.8924,3.8931,3.892,3.8929,3.8934,3.8947,3.896,3.8969,3.8992,3.8988,3.8999,3.8993,3.902,3.8994,3.8998,3.8993,3.8992,3.8994,3.9025,3.9026,3.9027,3.9027,0,3.8943,3.894,3.8951,3.8961,3.897,3.8978,3.8984,3.8992,3.8981,3.8991,3.9005,3.9013,3.9028,3.9041,3.905,3.9051,3.9038,3.9036,3.9042,3.9045,3.9048,3.9047,3.8964,3.9034,3.9033,3.9032,3.9032,3.9032,3.8989,3.9003,3.9007,3.902,3.9024,3.903,3.9043,3.9041,3.9053,3.9064,3.9057,3.9074,3.9078,3.909,3.9092,3.9106,3.9095,3.9103,3.9105,3.9108,3.9111,3.9046,3.9107,3.9107,3.9107,3.9107,3.9107,0,3.9049,3.9051,3.9064,3.9073,3.9084,3.9071,3.9078,3.9088,3.9103,3.9108,3.9118,3.9135,3.9148,3.9146,3.9157,3.9169,3.9163,3.9172,3.9171,3.9172,3.912,3.9114,3.9177,3.9177,3.9177,3.9177,3.9177,3.9177,3.9082,3.9106,3.9103,3.9129,3.913,3.9147,3.9152,3.9158,3.9162,3.9182,3.9193,3.9192,3.9194,3.9206,3.9217,3.9217,3.9222,3.9233,3.923,3.9182,3.9175,3.9168,3.9162,3.9234,3.9234,3.928,3.9281,3.9281]}]]